Prescott, AZ

10:17 AM MST on March 30, 2017 (GMT -0700)
Love

Weather History for KPRC - August, 2013

Change the Weather History Date:

Sunday, August 4, 2013

  Actual Average Record
Temperature  
Mean Temperature 78 °F 75 °F  
Max Temperature 89 °F 87 °F 99 °F (1994)
Min Temperature 67 °F 62 °F 52 °F (1976)
Degree Days  
Heating Degree Days 0    
Month to date heating degree days 0  
Since 1 July heating degree days 0  
Cooling Degree Days 13    
Month to date cooling degree days 51  
Year to date cooling degree days 783  
Growing Degree Days 28 (Base 50)    
Moisture  
Dew Point 44 °F    
Average Humidity 33    
Maximum Humidity 53    
Minimum Humidity 16    
Precipitation  
Precipitation 0.00 in 0.08 in 1.42 in (1968)
Month to date precipitation 0.00 0.34  
Year to date precipitation 5.83 7.38  
Sea Level Pressure  
Sea Level Pressure 29.92 in    
Wind  
Wind Speed 6 mph (SSW)    
Max Wind Speed 16 mph    
Max Gust Speed 38 mph    
Visibility 10 miles    
Events      
T = Trace of Precipitation, MM = Missing Value Source: NWS Daily Summary

Daily Weather History Graph

Daily Weather History Graph

Search for Another Location

Airport or City:

Trip Planner

Search our weather history database for the weather conditions in past years. The results will help you decide how hot, cold, wet, or windy it might be!

Date:

Astronomy

Aug. 04, 2013 Rise Set
Actual Time 5:42 AM MST 7:28 PM MST
Civil Twilight 5:14 AM MST 7:56 PM MST
Nautical Twilight 4:41 AM MST 8:29 PM MST
Astronomical Twilight 4:06 AM MST 9:04 PM MST
Moon 3:47 AM MST (8/4) 5:54 PM MST (8/4)
Length of Visible Light 14h 41m
Length of Day
13h 46m
Waning Crescent, 4% of the Moon is Illuminated
Aug 4
Waning Crescent
Aug 6
New
Aug 14
First Quarter
Aug 20
Full
Aug 28
Last Quarter

Hourly Weather History & Observations

Time (MST) Temp. Dew Point Humidity Pressure Visibility Wind Dir Wind Speed Gust Speed Precip Events Conditions
12:53 AM 70.0 °F 48.9 °F 47% 29.91 in 10.0 mi Calm Calm - N/A   Clear
1:53 AM 70.0 °F 48.0 °F 46% 29.90 in 10.0 mi SSW 6.9 mph - N/A   Clear
2:53 AM 68.0 °F 48.9 °F 50% 29.90 in 10.0 mi Calm Calm - N/A   Clear
3:53 AM 70.0 °F 48.0 °F 46% 29.90 in 10.0 mi SSW 4.6 mph 38.0 mph N/A   Clear
4:53 AM 69.1 °F 48.9 °F 49% 29.91 in 10.0 mi South 5.8 mph - N/A   Clear
5:53 AM 68.0 °F 50.0 °F 52% 29.93 in 10.0 mi South 8.1 mph - N/A   Clear
6:53 AM 69.1 °F 50.0 °F 51% 29.95 in 10.0 mi Calm Calm - N/A   Clear
7:53 AM 73.0 °F 50.0 °F 44% 29.96 in 10.0 mi North 3.5 mph - N/A   Clear
8:53 AM 80.1 °F 51.1 °F 36% 29.96 in 10.0 mi Calm Calm - N/A   Clear
9:53 AM 82.0 °F 46.9 °F 29% 29.96 in 10.0 mi SSW 6.9 mph - N/A   Clear
10:53 AM 84.9 °F 48.9 °F 29% 29.96 in 10.0 mi South 11.5 mph - N/A   Clear
11:53 AM 84.9 °F 48.0 °F 28% 29.95 in 10.0 mi SSW 8.1 mph 19.6 mph N/A   Clear
12:53 PM 86.0 °F 48.9 °F 28% 29.94 in 10.0 mi South 11.5 mph - N/A   Mostly Cloudy
1:53 PM 87.1 °F 46.9 °F 25% 29.91 in 10.0 mi SSW 8.1 mph - N/A   Mostly Cloudy
2:53 PM 88.0 °F 43.0 °F 21% 29.91 in 10.0 mi WSW 9.2 mph - N/A   Scattered Clouds
3:53 PM 86.0 °F 41.0 °F 20% 29.90 in 10.0 mi SSW 11.5 mph - N/A   Scattered Clouds
4:53 PM 88.0 °F 37.9 °F 17% 29.88 in 10.0 mi SSW 10.4 mph 17.3 mph N/A   Partly Cloudy
5:53 PM 87.1 °F 36.0 °F 16% 29.88 in 10.0 mi SSW 8.1 mph - N/A   Partly Cloudy
6:53 PM 84.0 °F 34.0 °F 17% 29.89 in 10.0 mi SSW 6.9 mph - N/A   Clear
7:53 PM 80.1 °F 37.0 °F 21% 29.90 in 10.0 mi SSW 4.6 mph - N/A   Partly Cloudy
8:53 PM 75.0 °F 39.9 °F 28% 29.91 in 10.0 mi South 6.9 mph - N/A   Clear
9:53 PM 73.0 °F 37.9 °F 28% 29.93 in 10.0 mi SSW 6.9 mph - N/A   Clear
10:53 PM 71.1 °F 37.9 °F 30% 29.92 in 10.0 mi South 5.8 mph - N/A   Clear
11:53 PM 72.0 °F 36.0 °F 27% 29.92 in 10.0 mi SSE 5.8 mph - N/A   Clear